Regional Weather Roundup
Issued by NWS

Home | Current Version | Previous Version | Text Only | Print | Product List | Glossary On
Versions: 1 2 3 4 5 6 7 8 9 10 11 12 13 14 15 16 17 18 19 20 21 22 23 24 25 26 27 28 29 30 31 32 33 34 35 36 37 38 39 40 41 42 43 44 45 46 47 48 49 50
000
ASUS43 KMKX 282021
RWRWI

WISCONSIN REGIONAL WEATHER ROUNDUP
NATIONAL WEATHER SERVICE MILWAUKEE/SULLIVAN WI
300 PM CDT MON JUL 28 2014

NOTE: "FAIR" INDICATES FEW OR NO CLOUDS BELOW 12,000 FEET WITH NO
SIGNIFICANT WEATHER AND/OR OBSTRUCTIONS TO VISIBILITY.

WIZ001-002-006>008-014>016-023>028-282100-
NORTHWEST WISCONSIN

CITY           SKY/WX    TMP DP  RH WIND       PRES   REMARKS
SUPERIOR ARPT  MOSUNNY   76  55  48 NW10      30.13F
ASHLAND        MOSUNNY   73  55  53 NW10G17   30.12F
HAYWARD        MOSUNNY   73  47  39 N10       30.15F
SIREN          SUNNY     74  48  40 N6        30.16F
RICE LAKE      PTSUNNY   72  51  47 NW9       30.17F
LADYSMITH      CLOUDY    71  51  49 N12       30.16S
EAU CLAIRE     MOSUNNY   75  49  39 VRB5G18   30.14F
MENOMONIE      PTCLDY    74  49  40 NW9       30.16F
NEW RICHMOND   PTSUNNY   71  49  44 N7        30.18S
OSCEOLA        PTSUNNY   74  53  48 NW5       30.19F
$$

WIZ003>005-009-010-017-018-282100-
NORTH CENTRAL WISCONSIN

CITY           SKY/WX    TMP DP  RH WIND       PRES   REMARKS
WOODRUFF       PTSUNNY   72  54  52 N10       30.12S
RHINELANDER    CLOUDY    68  49  50 N10G17    30.12S
EAGLE RIVER    CLOUDY    66  47  50 NW12G20   30.10S
LAND O LAKES   PTSUNNY   69  49  47 NW12      30.11S
PHILLIPS       MOSUNNY   70  52  53 N9        30.12F
TOMAHAWK       PTSUNNY   69  49  49 N9G16     30.12S
MEDFORD        CLOUDY    67  53  60 NW10      30.13S
MERRILL        PTSUNNY   72  52  50 N8        30.10S
$$

WIZ029-030-035-036-043>047-282100-
CENTRAL WISCONSIN

CITY           SKY/WX    TMP DP  RH WIND       PRES   REMARKS
WAUSAU         PTSUNNY   73  48  41 N8G17     30.08F
MOSINEE        PTSUNNY   72  48  43 NW14      30.11F
MARSHFIELD     MOSUNNY   75  52  44 NW14G24   30.12S
STEVENS POINT  PTSUNNY   70  49  47 N9        30.10F
WAUPACA        MOSUNNY   77  47  35 N12G18    30.08F
WAUTOMA        PTSUNNY   74  49  41 NW14      30.10S
WISC RAPIDS    CLOUDY    73  50  44 NW14      30.12S
CAMP DOUGLAS   PTSUNNY   73  54  49 NW10      30.12F
$$

WIZ011>013-019>022-031-037>040-048>050-282100-
NORTHEAST WISCONSIN

CITY           SKY/WX    TMP DP  RH WIND       PRES   REMARKS
ANTIGO         CLOUDY    69  50  50 N13       30.10S
STURGEON BAY   MOSUNNY   66  48  52 NW6       30.06S
GREEN BAY      CLOUDY    72  53  51 NW8       30.06S
MANITOWOC      MOSUNNY   61  46  57 SE10      30.08S
APPLETON       PTSUNNY   72  52  49 W8        30.08F
CLINTONVILLE   CLOUDY    73  45  35 N12G22    30.06S
OSHKOSH        CLOUDY    72  53  51 W9        30.07F
$$

WIZ032>034-041-042-053>061-282100-
SOUTHWEST WISCONSIN

CITY           SKY/WX    TMP DP  RH WIND       PRES   REMARKS
LA CROSSE      MOSUNNY   77  48  35 N12       30.14S
SPARTA         PTSUNNY   72  47  41 NW13      30.15S
VIROQUA        CLOUDY    69  50  50 N9        30.16S
BOSCOBEL       CLOUDY    74  48  39 N7        30.14F
PRAIRIE DU CHI PTSUNNY   75  42  31 N8G20     30.14F
PLATTEVILLE    PTSUNNY   72  49  43 NW8       30.15F
$$

WIZ056-057-062-063-064-067-068-282100-
SOUTH CENTRAL WISCONSIN

CITY           SKY/WX    TMP DP  RH WIND       PRES   REMARKS
BARABOO/DELLS  CLOUDY    71  47  41 NW8       30.12S
LONE ROCK      PTSUNNY   78  52  40 NW13      30.13F
WATERTOWN      PTSUNNY   71  50  47 N10       30.09F
MADISON        PTSUNNY   72  50  45 N8        30.11F
MIDDLETON      CLOUDY    72  46  39 N7G17     30.12S
MONROE         PTSUNNY   70  50  49 N13       30.12F
JANESVILLE     MOSUNNY   73  45  35 N8        30.10F
$$

WIZ051-052-058>065-066-070>072-282100-
SOUTHEAST WISCONSIN

CITY           SKY/WX    TMP DP  RH WIND       PRES   REMARKS
MILWAUKEE      PTSUNNY   65  50  58 NE10      30.10R
WAUKESHA       NOT AVBL
MILWAUKEE/TIMM MOSUNNY   68  48  49 NE6       30.10R
RACINE         SUNNY     66  50  56 NE12      30.11S
BURLINGTON     MOSUNNY   68  50  52 NW10G18   30.09F
KENOSHA        PTSUNNY   70  52  52 NE9       30.09S
FOND DU LAC    PTSUNNY   70  50  49 NW15G22   30.08F
SHEBOYGAN      MOSUNNY   66  50  56 E5        30.08S
WEST BEND      MOSUNNY   68  46  45 NW8       30.09S
JUNEAU         CLOUDY    70  46  42 NW8       30.10F
$$

LSZ147-162-282100-
LAKE SUPERIOR

STATION/POSITION TIME  TEMP    WIND        PRES    WAVE
                       AIR SEA DIR/SP/G            HT/PER
                 (UTC) (F)     (DEG/KT/KT) (MB)    (FT/S)
W MID LAKE BUOY  1950   51 44  240/ 12/ 12 1018.3F   1
PORT WING        1900   68     260/ 10/ 12 1020.3
SAXON HARBOR     1900          300/  4/  5 1020.0F
$$

LMZ867-665-643>646-282100-
LAKE MICHIGAN

STATION/POSITION TIME  TEMP    WIND        PRES    WAVE
                       AIR SEA DIR/SP/G            HT/PER
                 (UTC) (F)     (DEG/KT/KT) (MB)    (FT/S)
N MID LAKE BUOY  1950   55 55  200/  6/  8 1017.0F   1/ 5
NORTHPORT PIER   1900   63     300/  5/  7 1017.6F
SISTER BAY       1910   73        CALM       N/A
KEWAUNEE LAKESHO 1900   57     130/  3/  4 1019.3F
SHEBOYGAN LAKESH 2000   56      60/  1/  2 1019.3R
PORT WASHINGTON  1900   59      50/  6/ 10 1019.6S
ATWATER BUOY     2000   61      30/ 10     1019.9R
MILWAUKEE LAKESH 2000   60      40/ 11/ 12   N/A
S MID LAKE BUOY  1950   57 60  330/ 19/ 23 1018.2R   6/ 6
KENOSHA   LAKESH 2000   60      30/ 16/ 17 1018.6S
$$

TC  - TEMPERATURE IN CELSIUS
VSB - VISIBILITY IN STATUTE MILES
WCI - WIND CHILL INDEX
HX  - HEAT INDEX




USA.gov is the U.S. government's official web portal to all federal, state and local government web resources and services.